Weather History for Menominee, MI

Change the Weather History Date:

Wednesday, September 12, 2012

  Actual Average Record
Temperature  
Mean Temperature 66 °F -  
Max Temperature 78 °F 74 °F 90 °F (1952)
Min Temperature 53 °F 52 °F 34 °F (1964)
Growing Degree Days 16 (Base 50)    
Moisture  
Dew Point 52 °F    
Average Humidity 56    
Maximum Humidity 94    
Minimum Humidity 28    
Precipitation  
Precipitation 0.02 in - - ()
Sea Level Pressure  
Sea Level Pressure 30.06 in    
Wind  
Wind Speed 10 mph (WNW)    
Max Wind Speed 16 mph    
Max Gust Speed 21 mph    
Visibility 10 miles    
Events      
Averages and records for this station are not official NWS values.
T = Trace of Precipitation, MM = Missing Value Source: NWS Daily Summary

Daily Weather History Graph

Daily Weather History Graph

Search for Another Location

Airport:

Trip Planner

Search our weather history database for the weather conditions in past years. The results will help you decide how hot, cold, wet, or windy it might be!

Date:

Astronomy

Sep. 12, 2012 Rise Set
Actual Time 6:26 AM CDT 7:06 PM CDT
Civil Twilight 5:56 AM CDT 7:35 PM CDT
Nautical Twilight 5:21 AM CDT 8:10 PM CDT
Astronomical Twilight 4:44 AM CDT 8:47 PM CDT
Moon 2:34 AM CDT (9/12) 5:00 PM CDT (9/12)
Length of Visible Light 13h 39m
Length of Day
12h 40m
Waning Crescent, 13% of the Moon is Illuminated
Sep 12
Waning Crescent
Sep 15
New
Sep 22
First Quarter
Sep 29
Full
Oct 8
Last Quarter

Hourly Weather History & Observations

Time (CDT) Temp. Dew Point Humidity Pressure Visibility Wind Dir Wind Speed Gust Speed Precip Events Conditions
12:15 AM 69.8 °F 57.2 °F 64% 29.96 in 10.0 mi SW 11.5 mph - N/A   Clear
12:35 AM 69.8 °F 57.2 °F 64% 29.96 in 10.0 mi SW 15.0 mph - N/A   Clear
12:55 AM 69.8 °F 57.2 °F 64% 29.95 in 10.0 mi SW 16.1 mph - N/A   Clear
1:15 AM 69.8 °F 57.2 °F 64% 29.95 in 10.0 mi SW 15.0 mph 20.7 mph N/A   Clear
1:35 AM 69.8 °F 57.2 °F 64% 29.95 in 10.0 mi SW 13.8 mph 19.6 mph N/A   Clear
1:55 AM 69.8 °F 57.2 °F 64% 29.95 in 10.0 mi SW 13.8 mph - N/A   Clear
2:15 AM 69.8 °F 57.2 °F 64% 29.95 in 10.0 mi SW 12.7 mph 19.6 mph N/A   Clear
2:35 AM 69.8 °F 57.2 °F 64% 29.95 in 10.0 mi SW 12.7 mph 17.3 mph N/A   Clear
2:55 AM 69.8 °F 57.2 °F 64% 29.95 in 10.0 mi SW 15.0 mph - N/A   Clear
3:15 AM 69.8 °F 57.2 °F 64% 29.95 in 10.0 mi SW 13.8 mph 19.6 mph N/A   Clear
3:35 AM 69.8 °F 55.4 °F 60% 29.95 in 10.0 mi SW 11.5 mph - N/A   Clear
3:55 AM 69.8 °F 55.4 °F 60% 29.95 in 10.0 mi SW 13.8 mph 19.6 mph N/A   Clear
4:15 AM 69.8 °F 55.4 °F 60% 29.95 in 10.0 mi SW 12.7 mph 20.7 mph N/A   Clear
4:35 AM 69.8 °F 55.4 °F 60% 29.95 in 10.0 mi SW 15.0 mph 18.4 mph N/A   Clear
4:55 AM 68.0 °F 55.4 °F 64% 29.95 in 10.0 mi SW 12.7 mph 19.6 mph N/A   Clear
7:55 AM 68.0 °F 57.2 °F 68% 29.99 in 10.0 mi WSW 8.1 mph - N/A   Clear
8:15 AM 68.0 °F 57.2 °F 68% 30.00 in 10.0 mi SW 9.2 mph - N/A   Clear
8:35 AM 69.8 °F 57.2 °F 64% 30.01 in 10.0 mi WSW 6.9 mph 16.1 mph N/A   Clear
8:55 AM 69.8 °F 57.2 °F 64% 30.02 in 10.0 mi WSW 8.1 mph 16.1 mph N/A   Clear
9:15 AM 69.8 °F 57.2 °F 64% 30.03 in 10.0 mi West 8.1 mph - N/A   Clear
9:35 AM 71.6 °F 57.2 °F 60% 30.03 in 8.0 mi West 10.4 mph 16.1 mph N/A   Clear
9:55 AM 71.6 °F 59.0 °F 64% 30.03 in 10.0 mi West 8.1 mph - N/A   Clear
10:15 AM 73.4 °F 59.0 °F 61% 30.03 in 10.0 mi WNW 5.8 mph - N/A   Clear
10:35 AM 73.4 °F 59.0 °F 61% 30.03 in 10.0 mi WNW 6.9 mph - N/A   Clear
10:55 AM 73.4 °F 59.0 °F 61% 30.03 in 10.0 mi West 4.6 mph - N/A   Clear
11:15 AM 75.2 °F 59.0 °F 57% 30.03 in 10.0 mi WNW 4.6 mph - N/A   Clear
11:35 AM 75.2 °F 59.0 °F 57% 30.04 in 10.0 mi WSW 9.2 mph - N/A   Clear
11:55 AM 75.2 °F 59.0 °F 57% 30.04 in 10.0 mi WSW 4.6 mph - N/A   Clear
12:15 PM 75.2 °F 59.0 °F 57% 30.04 in 10.0 mi West 8.1 mph - N/A   Clear
12:35 PM 78.8 °F 60.8 °F 54% 30.04 in 10.0 mi NW 6.9 mph - N/A   Clear
12:55 PM 78.8 °F 60.8 °F 54% 30.04 in 10.0 mi NW 6.9 mph - N/A   Clear
1:15 PM 78.8 °F 60.8 °F 54% 30.05 in 10.0 mi NNW 6.9 mph - N/A   Clear
1:35 PM 78.8 °F 60.8 °F 54% 30.05 in 10.0 mi Calm Calm - N/A   Clear
1:55 PM 78.8 °F 60.8 °F 54% 30.04 in 10.0 mi West 5.8 mph - N/A   Partly Cloudy
2:15 PM 78.8 °F 59.0 °F 51% 30.05 in 10.0 mi NNW 10.4 mph - N/A   Scattered Clouds
2:35 PM 78.8 °F 57.2 °F 47% 30.05 in 10.0 mi NNW 10.4 mph 16.1 mph N/A   Mostly Cloudy
2:55 PM 77.0 °F 51.8 °F 41% 30.06 in 10.0 mi North 10.4 mph - N/A   Overcast
3:15 PM 78.8 °F 50.0 °F 36% 30.06 in 10.0 mi NNW 9.2 mph - N/A   Mostly Cloudy
3:35 PM 77.0 °F 46.4 °F 34% 30.06 in 10.0 mi NNW 8.1 mph 16.1 mph N/A   Mostly Cloudy
3:55 PM 75.2 °F 44.6 °F 34% 30.07 in 10.0 mi NNW 6.9 mph - N/A   Overcast
4:15 PM 75.2 °F 44.6 °F 34% 30.08 in 10.0 mi NNW 8.1 mph - N/A   Overcast
4:55 PM 71.6 °F 42.8 °F 35% 30.09 in 10.0 mi NNW 9.2 mph 16.1 mph N/A   Mostly Cloudy
5:15 PM 71.6 °F 37.4 °F 29% 30.10 in 10.0 mi North 11.5 mph 18.4 mph N/A   Overcast
5:35 PM 69.8 °F 35.6 °F 28% 30.11 in 10.0 mi NNW 9.2 mph - N/A   Overcast
5:55 PM 69.8 °F 35.6 °F 28% 30.11 in 10.0 mi NNW 9.2 mph - N/A   Overcast
6:15 PM 68.0 °F 35.6 °F 30% 30.12 in 10.0 mi NNW 6.9 mph - N/A   Overcast
6:35 PM 66.2 °F 37.4 °F 35% 30.13 in 10.0 mi NNW 8.1 mph - N/A   Mostly Cloudy
6:55 PM 66.2 °F 37.4 °F 35% 30.14 in 10.0 mi NNW 4.6 mph - N/A   Overcast
7:35 PM 66.2 °F 37.4 °F 35% 30.15 in 10.0 mi NNW 9.2 mph - N/A   Overcast
7:55 PM 64.4 °F 37.4 °F 37% 30.16 in 10.0 mi NNW 8.1 mph - N/A   Mostly Cloudy
8:15 PM 64.4 °F 37.4 °F 37% 30.18 in 10.0 mi NNW 13.8 mph 19.6 mph N/A   Overcast
8:35 PM 64.4 °F 37.4 °F 37% 30.17 in 10.0 mi NNW 10.4 mph 17.3 mph N/A   Overcast
8:55 PM 62.6 °F 39.2 °F 42% 30.18 in 10.0 mi NNW 13.8 mph 20.7 mph N/A   Overcast
9:15 PM 62.6 °F 39.2 °F 42% 30.19 in 10.0 mi NNW 13.8 mph 18.4 mph N/A   Overcast
9:35 PM 59.0 °F 44.6 °F 59% 30.17 in 10.0 mi North 9.2 mph 17.3 mph N/A   Mostly Cloudy
9:55 PM 55.4 °F 46.4 °F 72% 30.18 in 10.0 mi NNW 6.9 mph - N/A   Overcast
10:15 PM 53.6 °F 48.2 °F 82% 30.20 in 10.0 mi WNW 4.6 mph - 0.01 in   Overcast
10:35 PM 53.6 °F 48.2 °F 82% 30.20 in 9.0 mi Calm Calm - 0.02 in   Overcast
10:55 PM 53.6 °F 50.0 °F 88% 30.19 in 10.0 mi Calm Calm - 0.02 in   Overcast
11:15 PM 53.6 °F 51.8 °F 94% 30.20 in 10.0 mi Calm Calm - N/A   Overcast
11:35 PM 53.6 °F 51.8 °F 94% 30.20 in 10.0 mi Calm Calm - N/A   Overcast
11:55 PM 53.6 °F 51.8 °F 94% 30.20 in 10.0 mi Calm Calm - N/A   Overcast